Flag for U.S.A. Weather past 2 weeks in Bloomington, Illinois, U.S.A.

Now
5 °F

Clear.


Feels Like: 5 °F
Forecast: 1 / 23 °F
Wind: No wind

Location: Bloomington / Normal

Current Time: Feb 28, 2015 at 1:11:07 AM

Latest Report: Feb 28, 2015 at 12:56 AM


Visibility: 10 mi

Pressure: 30.76 "Hg

Humidity: 76%

Dew point: -1 °F

Location of BloomingtonLocation

Historic Weather in Bloomington — Graph

°F

Bloomington temperature yesterday

Maximum temperature yesterday: 17 °F (at 1:56 PM)
Minimum temperature yesterday: -7 °F (at 6:56 AM)
Average temperature yesterday: 5 °F

Past Weeks' High & Low Weather Summary

 TemperatureHumidityPressure
High36 °F (Feb 21, 1:56 PM)96% (Feb 21, 4:56 AM)30.84 "Hg (Feb 21, 4:56 AM)
Low-7 °F (Feb 27, 6:56 AM)32% (Feb 23, 3:56 PM)29.87 "Hg (Feb 24, 2:56 PM)
Average15 °F66%30.30 "Hg
* Reported Feb 12 11:56 PM — Feb 27 11:56 PM, Bloomington, Weather by CustomWeather, © 2015

Note: Actual official high and low records may vary slightly from our data, if they occured in-between our weather recording intervals... More about our weather records

Advertising

Bloomington weather history for previous 24 hours

 ConditionsComfort  
Time TempWeatherWind HumidityBarometerVisibility
11:56 PM
Fri, Feb 27
4 °FClear.No wind76%30.76 "Hg10 mi
10:56 PM4 °FClear.No wind72%30.77 "Hg10 mi
9:56 PM3 °FClear.No wind76%30.78 "Hg10 mi
8:56 PM3 °FClear.No wind76%30.77 "Hg10 mi
7:56 PM3 °FClear.3 mph72%30.76 "Hg10 mi
6:56 PM5 °FClear.No wind73%30.76 "Hg10 mi
5:56 PM9 °FClear.No wind66%30.75 "Hg10 mi
4:56 PM15 °FSunny.No wind49%30.73 "Hg10 mi
3:56 PM16 °FSunny.3 mph51%30.72 "Hg10 mi
2:56 PM16 °FSunny.5 mph51%30.72 "Hg10 mi
1:56 PM17 °FSunny.6 mph51%30.71 "Hg10 mi
12:56 PM14 °FSunny.3 mph56%30.71 "Hg10 mi
11:56 AM12 °FSunny.6 mph64%30.73 "Hg10 mi
10:56 AM10 °FSunny.No wind67%30.74 "Hg10 mi
9:56 AM6 °FSunny.7 mph66%30.73 "Hg10 mi
8:56 AM4 °FSunny.3 mph66%30.71 "Hg10 mi
7:56 AM-1 °FSunny.5 mph71%30.69 "Hg10 mi
6:56 AM-7 °FSunny.No wind83%30.67 "Hg10 mi
5:56 AM-5 °FClear.6 mphN/A30.64 "Hg10 mi
4:56 AM-4 °FClear.7 mph79%30.63 "Hg10 mi
3:56 AM-3 °FClear.9 mph75%30.60 "Hg10 mi
2:56 AM0 °FClear.9 mph75%30.59 "Hg10 mi
1:56 AM-1 °FClear.9 mph79%30.58 "Hg10 mi
Weather by CustomWeather, © 2015

See weather overviewHow to use our weather pages